Вернуться в каталог

BREEZE-M R/B

АктивенHEO
NORAD 27633·ROCKET BODY·🇷🇺 Russia

Запущен Dec 29, 2002 с Baikonur Cosmodrome

Loading…

Ближайшие Пролёты (ближайшие 24 часа)

TLE

СвежийSource: Space-Track

Эпоха: Sep 14, 2026, 12:19 UTC

1 27633U 02062B   26257.51373831 -.00000143  00000-0  00000-0 0  9993
2 27633  17.7551 353.2179 4907192  96.1804 339.6133  1.83739456159154

Отслеживайте BREEZE-M R/B в реальном времени с AllMySat

Download on the App Store